Regional Weather Roundup
Issued by NWS

Home | Current Version | Previous Version | Text Only | Print | Product List | Glossary Off
Versions: 1 2 3 4 5 6 7 8 9 10 11 12 13 14 15 16 17 18 19 20 21 22 23 24 25 26 27 28 29 30 31 32 33 34 35 36 37 38 39 40 41 42 43 44 45 46 47 48 49 50

000
ASUS43 KOAX 280810
RWRNE

WEATHER ROUNDUP FOR NEBRASKA
NATIONAL WEATHER SERVICE OMAHA NE
300 AM CDT FRI APR 28 2017

NOTES: SATELLITE DATA IS BEING USED TO AUGMENT CLOUD COVER ABOVE
       12000 FEET.
       "FAIR" INDICATES FEW OR NO CLOUDS BELOW 12,000 FEET WITH NO
       SIGNIFICANT WEATHER AND/OR OBSTRUCTIONS TO VISIBILITY.

  * THESE STATIONS DO NOT REPORT WEATHER SUCH AS RAIN...SNOW OR FOG.

NEZ001>004-019>022-054>056-280900-
NEBRASKA PANHANDLE

CITY           SKY/WX    TMP DP  RH WIND       PRES   REMARKS
SCOTTSBLUFF    CLOUDY    41  38  89 E14       29.60F
ALLIANCE       FLURRIES  35  33  92 SE14      29.63S WCI  26
CHADRON        LGT RAIN  41  37  86 E12G21    29.67S
KIMBALL        CLOUDY    38  35  90 SW9       29.61S WCI  31
SIDNEY         CLOUDY    37  35  92 SE9       29.62F WCI  30
$$

NEZ057>060-069>072-079>082-280900-
SOUTHWEST NEBRASKA

CITY           SKY/WX    TMP DP  RH WIND       PRES   REMARKS
NORTH PLATTE   RAIN      43  42  97 E8        29.65F FOG
IMPERIAL       LGT RAIN  42  40  92 NE8       29.60F
LEXINGTON      RAIN      44  42  92 E9        29.66S
MCCOOK         LGT RAIN  43  43 100 E15       29.59F FOG
OGALLALA       LGT SNOW  34  33  96 E6        29.65S WCI  29
$$

NEZ005>010-023>029-035>040-094-280900-
NORTH CENTRAL NEBRASKA

CITY           SKY/WX    TMP DP  RH WIND       PRES   REMARKS
VALENTINE      CLOUDY    42  32  67 E14       29.74F
AINSWORTH      CLOUDY    40  34  80 E15G22    29.75S WCI  31
BROKEN BOW     LGT RAIN  45  41  86 E10       29.67F
O`NEILL        CLOUDY    40  31  69 E17       29.78S WCI  31
ORD            CLOUDY    44  36  73 E13       29.70F
THEDFORD       LGT RAIN  42  41  95 E8        29.69F
$$

NEZ041-046>049-061>064-073>077-083>087-280900-
SOUTH CENTRAL NEBRASKA

CITY           SKY/WX    TMP DP  RH WIND       PRES   REMARKS
GRAND ISLAND   LGT RAIN  45  44  97 E12       29.71F FOG
AURORA         CLOUDY    47  43  85 E9        29.70F
HASTINGS       LGT RAIN  46  43  89 E10       29.68F
HEBRON         LGT RAIN  47  45  93 E9        29.68F
HOLDREGE       RAIN      44  42  94 E13       29.64F
KEARNEY *      CLOUDY    45  41  87 E10       29.67F
YORK           CLOUDY    48  43  81 E10       29.72F
$$

NEZ011>018-030>034-042>045-280900-
NORTHEAST NEBRASKA

CITY           SKY/WX    TMP DP  RH WIND       PRES   REMARKS
NORFOLK        CLOUDY    40  32  73 E7        29.77F
ALBION         CLOUDY    44  33  67 E10       29.76R
BLAIR          CLOUDY    44  35  71 NE14      29.78S
FREMONT        CLOUDY    45  35  69 E9G16     29.77F
TEKAMAH        CLOUDY    40  34  79 NE8       29.80F WCI  34
WAYNE          CLEAR     36  35  97 E13       29.80F WCI  27
$$

NEZ050>053-065>068-078-088>093-280900-
SOUTHEAST NEBRASKA

CITY           SKY/WX    TMP DP  RH WIND       PRES   REMARKS
LINCOLN        CLOUDY    50  42  74 E5        29.76F
OMAHA EPPLEY   CLOUDY    46  34  62 E9        29.79S
BEATRICE       LGT RAIN  49  47  91 E9        29.72F
FALLS CITY     RAIN      49  47  93 E9        29.73F
NEBRASKA CITY  LGT RAIN  49  44  81 SE5       29.75F
PLATTSMOUTH    CLOUDY    50  33  52 E12       29.77F
$$

NEZ044-045-051>053-067-280900-
OMAHA AREA

CITY           SKY/WX    TMP DP  RH WIND       PRES   REMARKS
OMAHA EPPLEY   CLOUDY    46  34  62 E9        29.79S
BLAIR          CLOUDY    44  35  71 NE14      29.78S
FREMONT        CLOUDY    45  35  69 E9G16     29.77F
MILLARD        CLOUDY    50  37  60 E6        29.77F
PLATTSMOUTH    CLOUDY    50  33  52 E12       29.77F
WAHOO          CLOUDY    47  35  64 NE9       29.76S
$$



USA.gov is the U.S. government's official web portal to all federal, state and local government web resources and services.